Denton, TX

4:54 PM CDT on April 27, 2017 (GMT -0500)
Denton Municipal

Weather History for KDTO - November, 2012

Change the Weather History Date:

Wednesday, November 21, 2012

  Actual Average Record
Temperature  
Mean Temperature 61 °F -  
Max Temperature 79 °F 62 °F 80 °F (2010)
Min Temperature 43 °F 41 °F 26 °F (2000)
Degree Days  
Heating Degree Days 4    
Growing Degree Days 11 (Base 50)    
Moisture  
Dew Point 45 °F    
Average Humidity 61    
Maximum Humidity 93    
Minimum Humidity 30    
Precipitation  
Precipitation 0.00 in - - ()
Sea Level Pressure  
Sea Level Pressure 30.18 in    
Wind  
Wind Speed 5 mph (SSE)    
Max Wind Speed 16 mph    
Max Gust Speed 22 mph    
Visibility 10 miles    
Events      
Averages and records for this station are not official NWS values.
T = Trace of Precipitation, MM = Missing Value Source: NWS Daily Summary

Daily Weather History Graph

Daily Weather History Graph

Search for Another Location

Airport or City:

Trip Planner

Search our weather history database for the weather conditions in past years. The results will help you decide how hot, cold, wet, or windy it might be!

Date:

Astronomy

Nov. 21, 2012 Rise Set
Actual Time 7:05 AM CST 5:23 PM CST
Civil Twilight 6:39 AM CST 5:50 PM CST
Nautical Twilight 6:08 AM CST 6:20 PM CST
Astronomical Twilight 5:39 AM CST 6:50 PM CST
Moon 1:23 PM CST (11/21) 12:45 AM CST (11/21)
Length of Visible Light 11h 11m
Length of Day
10h 17m
First Quarter, 62% of the Moon is Illuminated
Nov 21
First Quarter
Nov 28
Full
Dec 6
Last Quarter
Dec 13
New
Dec 19
First Quarter

Hourly Weather History & Observations

Time (CST) Temp. Windchill Dew Point Humidity Pressure Visibility Wind Dir Wind Speed Gust Speed Precip Events Conditions
12:53 AM 48.0 °F - 41.0 °F 77% 30.19 in 10.0 mi Calm Calm - N/A   Clear
1:53 AM 46.0 °F 44.8 °F 41.0 °F 83% 30.19 in 10.0 mi North 3.5 mph - N/A   Clear
2:53 AM 46.9 °F - 43.0 °F 86% 30.19 in 10.0 mi NNW 3.5 mph - N/A   Clear
3:53 AM 46.0 °F 43.1 °F 42.1 °F 86% 30.19 in 10.0 mi West 5.8 mph - N/A   Clear
4:53 AM 43.0 °F 40.3 °F 39.9 °F 89% 30.21 in 10.0 mi North 4.6 mph - N/A   Clear
5:53 AM 44.1 °F - 42.1 °F 93% 30.22 in 10.0 mi Calm Calm - N/A   Clear
6:53 AM 43.0 °F - 39.9 °F 89% 30.24 in 10.0 mi Calm Calm - N/A   Clear
7:53 AM 45.0 °F - 39.9 °F 82% 30.25 in 10.0 mi Calm Calm - N/A   Clear
8:53 AM 55.0 °F - 46.9 °F 74% 30.26 in 10.0 mi Calm Calm - N/A   Clear
9:53 AM 64.9 °F - 52.0 °F 63% 30.27 in 10.0 mi SSE 8.1 mph - N/A   Clear
10:53 AM 72.0 °F - 54.0 °F 53% 30.25 in 10.0 mi SE 8.1 mph - N/A   Clear
11:53 AM 75.9 °F - 51.1 °F 42% 30.22 in 10.0 mi SSE 13.8 mph 21.9 mph N/A   Clear
12:53 PM 77.0 °F - 48.0 °F 36% 30.19 in 10.0 mi SSE 13.8 mph 19.6 mph N/A   Clear
1:53 PM 79.0 °F - 48.0 °F 34% 30.16 in 10.0 mi SE 16.1 mph 19.6 mph N/A   Clear
2:53 PM 79.0 °F - 45.0 °F 30% 30.14 in 10.0 mi SSE 12.7 mph - N/A   Clear
3:53 PM 75.9 °F - 44.1 °F 32% 30.13 in 10.0 mi SSE 10.4 mph - N/A   Clear
4:53 PM 75.0 °F - 44.1 °F 33% 30.12 in 10.0 mi SSE 9.2 mph - N/A   Clear
5:53 PM 70.0 °F - 45.0 °F 41% 30.12 in 10.0 mi SSE 10.4 mph - N/A   Clear
6:53 PM 66.0 °F - 46.0 °F 48% 30.13 in 10.0 mi SE 8.1 mph - N/A   Clear
7:53 PM 64.0 °F - 46.9 °F 54% 30.13 in 10.0 mi SE 6.9 mph - N/A   Clear
8:53 PM 62.1 °F - 46.0 °F 56% 30.13 in 10.0 mi SSE 5.8 mph - N/A   Clear
9:53 PM 59.0 °F - 45.0 °F 60% 30.13 in 10.0 mi SSE 8.1 mph - N/A   Clear
10:53 PM 57.9 °F - 45.0 °F 62% 30.12 in 10.0 mi South 5.8 mph - N/A   Clear
11:53 PM 57.9 °F - 44.1 °F 60% 30.09 in 10.0 mi South 4.6 mph - N/A   Clear